Flag for U.S.A. Weather past 2 weeks in Brownsville, Texas, U.S.A.

Now
91 °F

Scattered clouds.


Feels Like: 101 °F
Forecast: 80 / 95 °F
Wind: 15 mph from South

Location: Brownsville / South Padre Island International Airport

Current Time: Jul 22, 2014 at 6:55:30 PM

Latest Report: Jul 22, 2014 at 11:53 AM


Visibility: 10 mi

Pressure: 30.02 "Hg

Humidity: 57%

Dew point: 74 °F

Location of BrownsvilleLocation

Historic Weather in Brownsville — Graph

°F

Brownsville temperature yesterday

Maximum temperature yesterday: 94 °F (at 2:53 PM)
Minimum temperature yesterday: 80 °F (at 1:53 AM)
Average temperature yesterday: 86 °F

Past Weeks' High & Low Weather Summary

 TemperatureHumidityPressure
High96 °F (Jul 19, 3:53 PM)100% (Jul 7, 9:53 PM)30.12 "Hg (Jul 7, 9:53 PM)
Low71 °F (Jul 10, 11:53 AM)41% (Jul 8, 2:53 PM)29.78 "Hg (Jul 17, 7:53 PM)
Average83 °F78%29.97 "Hg
* Reported Jul 7 11:53 AM — Jul 22 11:53 AM, Brownsville, Weather by CustomWeather, © 2014

Note: Actual official high and low records may vary slightly from our data, if they occured in-between our weather recording intervals... More about our weather records

Advertising

Brownsville weather history for previous 24 hours

 ConditionsComfort  
Time TempWeatherWind HumidityBarometerVisibility
11:53 AM
Jul 22
91 °FScattered clouds.15 mph57%30.02 "Hg10 mi
10:53 AM90 °FScattered clouds.14 mph61%30.02 "Hg10 mi
9:53 AM87 °FScattered clouds.12 mph72%30.01 "Hg10 mi
8:53 AM83 °FPartly sunny.9 mph94%30.00 "Hg10 mi
7:53 AM80 °FWarm.N/A94%29.99 "Hg10 mi
6:53 AM78 °FOvercast.6 mph96%29.97 "Hg10 mi
5:53 AM78 °FClear.6 mph96%29.96 "Hg10 mi
4:53 AM78 °FClear.6 mph93%29.95 "Hg10 mi
3:53 AM79 °FClear.6 mph94%29.96 "Hg10 mi
2:53 AM79 °FClear.7 mph94%29.96 "Hg10 mi
1:53 AM80 °FClear.8 mph90%29.96 "Hg10 mi
12:53 AM80 °FClear.7 mph90%29.97 "Hg10 mi
11:53 PM
Jul 21
80 °FPassing clouds.8 mph90%29.98 "Hg10 mi
10:53 PM81 °FPassing clouds.8 mph88%29.98 "Hg10 mi
9:53 PM81 °FClear.6 mph88%29.96 "Hg10 mi
8:53 PM83 °FPassing clouds.12 mph79%29.96 "Hg10 mi
7:53 PM85 °FSunny.16 mph72%29.94 "Hg10 mi
6:53 PM89 °FSunny.14 mph59%29.93 "Hg10 mi
Weather by CustomWeather, © 2014

See weather overviewHow to use our weather pages